Regional Weather Roundup
Issued by NWS Northern Indiana

Current Version | Previous Version | Text Only | Print | Product List | Glossary On
Versions: 1 2 3 4 5 6 7 8 9 10 11 12 13 14 15 16 17 18 19 20 21 22 23 24 25 26 27 28 29 30 31 32 33 34 35 36 37 38 39 40 41 42 43 44 45 46 47 48 49 50
000
ASUS43 KIWX 111210
RWRIWX

KIWX WEATHER ROUNDUP
NATIONAL WEATHER SERVICE NORTHERN INDIANA
700 AM EST SUN DEC 11 2016

NOTE: "FAIR" INDICATES FEW OR NO CLOUDS BELOW 12,000 FEET WITH NO
SIGNIFICANT WEATHER AND/OR OBSTRUCTIONS TO VISIBILITY.

* THESE STATIONS ARE NOT UNDER NWS QUALITY CONTROL. THEY ALSO MAY NOT
  REPORT WEATHER SUCH AS PRECIPITATION OR FOG.

INZ001>027-111300-
NORTHERN INDIANA

CITY           SKY/WX    TMP DP  RH WIND       PRES   REMARKS
GARY*          CLOUDY    28  25  86 SE10      30.13F WCI  19
VALPARAISO     LGT SNOW  26  22  84 MISG      30.13F FOG
6HR MIN TEMP:  25; 6HR MAX TEMP:  26; 6HR PCP:  0.03;

MICHIGAN CITY* LGT SNOW  27  25  93 SE7       30.15F WCI  19
LAPORTE*       LGT SNOW  25  22  89 SE9       30.14F WCI  15
6HR MIN TEMP:  23; 6HR MAX TEMP:  25;

KNOX*          CLOUDY    27  12  54 SE14      30.13F WCI  15
SOUTH BEND     LGT SNOW  24  22  91 SE15      30.16F FOG     WCI  11
6HR MIN TEMP:  22; 6HR MAX TEMP:  24; 6HR PCP:  0.13;

GOSHEN         LGT SNOW  25  20  81 SE16      30.18F WCI  12
6HR MIN TEMP:  24; 6HR MAX TEMP:  25; 6HR PCP:  0.04;

MONTICELLO*    CLOUDY    27  19  72 SE9       30.14F WCI  18
6HR MIN TEMP:  25; 6HR MAX TEMP:  27;

LOGANSPORT*    CLOUDY    27  23  86 SE13      30.17F WCI  16
ROCHESTER*     LGT SNOW  28  28 100 SE12      30.17F WCI  18
WARSAW*        LGT SNOW  25  21  86 SE7       30.19F WCI  17
ANGOLA*        CLOUDY    23  21  93 S12       30.21F WCI  12
FORT WAYNE     LGT SNOW  25  21  85 SE12      30.24F FOG     WCI  14
6HR MIN TEMP:  24; 6HR MAX TEMP:  25; 6HR PCP:  0.08;

HUNTINGTON*    LGT SNOW  25  23  92 SE7       30.21F WCI  17
6HR MIN TEMP:  24; 6HR MAX TEMP:  25; 6HR PCP:  0.01;

PERU/GRISSOM   FLURRIES  26  23  88 SE16      30.15F WCI  14
6HR MIN TEMP:  24; 6HR MAX TEMP:  26; 6HR PCP: TRACE;

MARION*        CLOUDY    27  22  82 SE13      30.20F FOG     WCI  16
6HR MIN TEMP:  16; 6HR MAX TEMP:  89;


$$
INZ028>050-111300-
CENTRAL INDIANA

CITY           SKY/WX    TMP DP  RH WIND       PRES   REMARKS
LAFAYETTE      CLOUDY    29  22  75 SE9       30.15F WCI  20
6HR MIN TEMP:  25; 6HR MAX TEMP:  29; 6HR PCP: TRACE;

KOKOMO*        FLURRIES  27  23  85 SE10      30.18F WCI  17
6HR MIN TEMP:  24; 6HR MAX TEMP:  27; 6HR PCP: TRACE;

MUNCIE*        CLOUDY    29  20  69 SE10      30.22F WCI  20
6HR MIN TEMP:  26; 6HR MAX TEMP:  29; 6HR PCP:  0.02;

INDIANAPOLIS   CLOUDY    30  19  63 SE14      30.17F WCI  19
6HR MIN TEMP:  27; 6HR MAX TEMP:  30; 6HR PCP: TRACE;


$$
MIZ043>046-050>051-056>058-064>065-071>073-077>080-111300-
SOUTHWEST LOWER MICHIGAN

CITY           SKY/WX    TMP DP  RH WIND       PRES   REMARKS
BATTLE CREEK   LGT SNOW  23  21  92 SE9       30.19F FOG     WCI  13
6HR MIN TEMP:  22; 6HR MAX TEMP:  23; 6HR PCP:  0.02;

BENTON HARBOR  LGT SNOW  25  21  85 SE10      30.16F FOG     WCI  15
6HR MIN TEMP:  24; 6HR MAX TEMP:  25; 6HR PCP:  0.06;

COLDWATER*     LGT SNOW  24  22  92 SE9       30.21F WCI  15
6HR MIN TEMP:  23; 6HR MAX TEMP:  24;

HILLSDALE*     LGT SNOW  23  21  93 SE8       30.21F WCI  14
HOLLAND        LGT SNOW  24  21  88 SE12      30.17F FOG     WCI  13
6HR MIN TEMP:  23; 6HR MAX TEMP:  24; 6HR PCP:  0.01;

GRAND RAPIDS   LGT SNOW  23  19  85 SE8       30.19F FOG     WCI  14
6HR MIN TEMP:  22; 6HR MAX TEMP:  23; 6HR PCP:  0.04;

KALAMAZOO      LGT SNOW  24  20  84 SE8       30.17F VSB 1   WCI  15
6HR MIN TEMP:  23; 6HR MAX TEMP:  24; 6HR PCP:  0.03;

STURGIS*       LGT SNOW  24  22  92 S9        30.19F WCI  14
6HR MIN TEMP:  22; 6HR MAX TEMP:  24;

THREE RIVERS*  LGT SNOW  24  22  92 S7        30.20F WCI  16
6HR MIN TEMP:  23; 6HR MAX TEMP:  24;


$$
OHZ001>008-015>018-024>025-111300-
NORTHWEST OHIO

CITY           SKY/WX    TMP DP  RH WIND       PRES   REMARKS
WAUSEON*       LGT SNOW  25  23  93 SE10      30.27F WCI  15
DEFIANCE       LGT SNOW  26  21  81 SE8       30.27F WCI  18
6HR MIN TEMP:  25; 6HR MAX TEMP:  26; 6HR PCP:  0.05;

FINDLAY        LGT SNOW  25  20  81 SE10      30.28F WCI  15
6HR MIN TEMP:  24; 6HR MAX TEMP:  25; 6HR PCP:  0.05;

TOLEDO EXPRESS LGT SNOW  23  23 100 VRB6      30.28F FOG     WCI  16
6HR MIN TEMP:  23; 6HR MAX TEMP:  24; 6HR PCP:  0.07;

TOLEDO METCALF LGT SNOW  25  23  92 SE9       30.30F FOG     WCI  15
6HR MIN TEMP:  24; 6HR MAX TEMP:  25; 6HR PCP:  0.02;

LIMA           CLOUDY    24  22  91 SE10      30.26F WCI  14
6HR MIN TEMP:  23; 6HR MAX TEMP:  24; 6HR PCP:  0.05;


$$
AND FOR LAKE MICHIGAN COASTAL AND OPEN LAKE BUOY OBSERVATIONS

STATION/POSITION TEMP    WIND        PRES    VSBY  WAVE
                 AIR SEA DIR/SP/G                  HT/PER
                 (F)     (DEG/KT/KT) (MB)    (MI)  (FT/S)
CALUMET HARBOR    26     140/ 10/ 14 1018.8F
BURNS HARBOR      26     150/ 12/ 20 1020.7F
SAINT JOSEPH      25     140/  2/  7 1021.7

$$
&&




USA.gov is the U.S. government's official web portal to all federal, state and local government web resources and services.